Regional Weather Roundup
Issued by NWS

Home | Current Version | Previous Version | Text Only | Print | Product List | Glossary Off
Versions: 1 2 3 4 5 6 7 8 9 10 11 12 13 14 15 16 17 18 19 20 21 22 23 24 25 26 27 28 29 30 31 32 33 34 35 36 37 38 39 40 41 42 43 44 45 46 47 48 49 50

000
ASUS43 KLOT 211910
RWRIL

ILLINOIS REGIONAL WEATHER ROUNDUP
NATIONAL WEATHER SERVICE CHICAGO/ROMEOVILLE IL
100 PM CST FRI NOV 21 2014

NOTE: "FAIR" INDICATES FEW OR NO CLOUDS BELOW 12,000 FEET WITH NO
SIGNIFICANT WEATHER AND/OR OBSTRUCTIONS TO VISIBILITY.

* THESE STATIONS ARE NOT UNDER NWS QUALITY CONTROL. THEY ALSO MAY NOT
  REPORT WEATHER SUCH AS PRECIPITATION OR FOG.

ILZ001-002-007-009-015-016-024-212000-
NORTHWEST ILLINOIS

CITY           SKY/WX    TMP DP  RH WIND       PRES   REMARKS
MOLINE         SUNNY     34   7  32 SE14      30.32F WCI  25
STERLING*      SUNNY     34   5  29 S8G17     30.35F WCI  27
$$

ILZ003-004-008-010-011-017-018-212000-
NORTH CENTRAL ILLINOIS

CITY           SKY/WX    TMP DP  RH WIND       PRES   REMARKS
ROCKFORD       MOSUNNY   32   3  29 S15       30.37F WCI  22
FREEPORT*      SUNNY     30   4  33 S14       30.35F WCI  19
ROCHELLE*      SUNNY     31   5  34 S15       30.36F WCI  20
DE KALB*       SUNNY     29   3  33 SE14      30.35F WCI  18
PERU*          SUNNY     33   4  29 S17       30.37F WCI  22
$$

ILZ005-006-012>014-019>023-212000-
NORTHEAST ILLINOIS

CITY           SKY/WX    TMP DP  RH WIND       PRES   REMARKS
CHICAGO-OHARE  MOSUNNY   31   0  26 S14       30.38F WCI  21
CHICAGO-MIDWAY MOSUNNY   33   5  30 S12G18    30.40F WCI  24
AURORA         SUNNY     32   0  25 SE13      30.37F WCI  22
LANSING*       SUNNY     32   6  34 S10       30.41F WCI  24
JOLIET*        SUNNY     31   1  26 S7        30.39F WCI  25
WAUKEGAN       SUNNY     30  -1  26 S14       30.36F WCI  19
DUPAGE AIRPORT SUNNY     31   1  28 S12       30.37F WCI  22
KANKAKEE*      SUNNY     33   6  31 S9        30.41F WCI  25
WHEELING       SUNNY     31   0  26 S14       30.40F WCI  21
MORRIS*        SUNNY     32   5  31 S13       30.38F WCI  23
ROMEOVILLE*    SUNNY     32   0  26 S13       30.39F WCI  22
NORTHERLY ISL    N/A     32   5  32 S9          N/A  WCI  24
$$

LMZ740>746-212000-
SOUTHERN LAKE MICHIGAN

STATION/POSITION SKY/WX   TEMP    WIND        PRES    VSBY  WAVE
                          AIR SEA DIR/SP/G                  HT/PER
                          (F)     (DEG/KT/KT) (MB)    (MI)  (FT/S)
SOUTHERN BUOY              28 43  190/ 16/ 19 1030.0F         2/ 6
WAUKEGAN HARBOR            31     180/ 11/ 15   N/A
HARRISON CRIB              28     170/ 13/ 16   N/A
BURNHAM HARBOR             31     200/  6/ 11   N/A
CALUMET HARBOR             30     180/ 10/ 13 1028.2F
MICHIGAN CITY              29     140/ 10/ 12   N/A
$$

ILZ025>027-034>036-040-047-049-050-058-095>099-212000-
WEST-CENTRAL ILLINOIS

CITY           SKY/WX    TMP DP  RH WIND       PRES   REMARKS
QUINCY         MOSUNNY   36  14  40 SE15      30.30F WCI  27
GALESBURG*     SUNNY     33   7  34 SE8       30.33F WCI  26
MACOMB*        SUNNY     35  10  34 SE15G23   30.35F WCI  26
JACKSONVILLE*  MOSUNNY   38  14  37 S14       30.35F WCI  30
PITTSFIELD*    SUNNY     38  18  45 SE13      30.33F WCI  30
$$

ILZ028>032-037-038-041>044-048-051>054-059>061-212000-
CENTRAL ILLINOIS

CITY           SKY/WX    TMP DP  RH WIND       PRES   REMARKS
PONTIAC        SUNNY     35   6  30 S15       30.40F WCI  25
BLOOMINGTON    SUNNY     34   8  33 SE12      30.38F WCI  25
DECATUR        SUNNY     35  12  38 S8G18     30.39F WCI  29
PEORIA         SUNNY     35   6  29 SE10      30.37F WCI  27
LACON*         SUNNY     34   1  25 S12       30.37  WCI  26
LINCOLN*       SUNNY     36  11  35 SE10      30.39F WCI  28
SPRINGFIELD    SUNNY     37  12  35 SE10      30.37F WCI  30
TAYLORVILLE    MOSUNNY   34  12  40 SE10      30.38F WCI  26
$$

ILZ033-039-045-046-055>057-062-063-212000-
EAST-CENTRAL ILLINOIS

CITY           SKY/WX    TMP DP  RH WIND       PRES   REMARKS
CHAMPAIGN      SUNNY     34   9  35 SE15      30.41F WCI  24
DANVILLE*      SUNNY     31  10  40 SE9       30.40S WCI  23
RANTOUL*       SUNNY     34   6  31 SE10      30.41S WCI  26
MATTOON        SUNNY     34  12  40 SE10      30.39F WCI  26
PARIS*         SUNNY     34  13  42 SE8       30.44F WCI  27
$$

ILZ079-100>102-212000-
SOUTHWEST ILLINOIS

CITY           SKY/WX    TMP DP  RH WIND       PRES   REMARKS
ALTON          SUNNY     37  14  38 E13       30.36F WCI  29
BELLEVILLE     CLOUDY    39  20  46 SE13      30.36F WCI  31
CAHOKIA*       PTSUNNY   41  21  44 SE9       30.36F
SPARTA*        CLOUDY    39  22  49 SE9       30.37F WCI  33
$$

ILZ064>066-069>071-074>076-080>082-084>086-088>090-092>094-212000-
SOUTH-CENTRAL ILLINOIS

CITY           SKY/WX    TMP DP  RH WIND       PRES   REMARKS
CARBONDALE     CLOUDY    43  21  41 E8        30.37F
CAIRO*         CLOUDY    47  26  42 E10       30.36F
EFFINGHAM*     SUNNY     36   9  32 SE10      30.41F WCI  29
MARION         MOSUNNY   45  21  39 SE12      30.38F
MT. VERNON     MOSUNNY   41  19  42 E9        30.41F
CENTRALIA*     SUNNY     39  16  39 SE10      30.38F WCI  33
SALEM*           N/A     40  17  38 E7        30.39F
METROPOLIS*    PTSUNNY   46  25  43 E9        30.37F
$$

ILZ067-068-072-073-078-083-087-091-212000-
SOUTHEAST ILLINOIS

CITY           SKY/WX    TMP DP  RH WIND       PRES   REMARKS
LAWRENCEVILLE  SUNNY     38  14  37 SE10      30.44F WCI  31
FLORA*         SUNNY     38  16  41 SE12      30.42F WCI  30
FAIRFIELD*     SUNNY     40  17  38 SE12      30.41F
HARRISBURG*    SUNNY     41  24  50 SE12      30.41F
ROBINSON*      SUNNY     36  12  37 SE9       30.44F WCI  29
CARMI*         SUNNY     42  21  43 SE13      30.42F
$$

ABBREVIATIONS USED IN REMARKS
   TC - TEMPERATURE IN CELSIUS
  WCI - WIND CHILL INDEX
   HX - HEAT INDEX
  VSB - VISIBILITY
$$



USA.gov is the U.S. government's official web portal to all federal, state and local government web resources and services.